Location: L'Union
(43.6635°N, 1.4699°E)
Time: 05:14:35
(UTC+02:00)

NO-84 - Visible Passes

Search period start: 17 October 2021 00:00
Search period end: 27 October 2021 00:00
Orbit: 286 x 358 km, 55.0° (Epoch: 13 October)

Date Brightness Start Highest point End Pass type
(mag) Time Alt. Az. Time Alt. Az. Time Alt. Az.
17 Oct ? 19:43:17 10° NNW 19:44:47 14° NNE 19:46:18 10° ENE visible
17 Oct ? 21:16:44 10° NW 21:17:22 16° NW 21:17:22 16° NW visible
18 Oct ? 19:57:25 10° NNW 19:59:38 23° NNE 20:00:46 18° ENE visible
18 Oct ? 21:31:31 10° WNW 21:31:39 11° WNW 21:31:39 11° WNW visible
19 Oct ? 20:11:24 10° NW 20:14:00 52° NE 20:14:51 34° E visible
20 Oct ? 20:25:18 10° WNW 20:27:52 52° SW 20:28:45 33° SSE visible
21 Oct ? 20:39:18 10° W 20:41:17 19° SW 20:42:31 14° SSW visible
23 Oct ? 19:30:54 10° WNW 19:33:17 34° SW 19:35:44 10° SSE visible
24 Oct ? 19:44:14 10° W 19:45:38 13° SW 19:47:01 10° SSW visible
